Torna al catalogo

STARLINK-33935

AttivoComunicazioniVLEO
NORAD 63791·PAYLOAD·🇺🇸 United States

Lanciato May 2, 2025 da Cape Canaveral Space Force Station

Loading…

Prossimi Passaggi (prossime 24 ore)

TLE

AggiornatoSource: CelesTrak SupGP

Epoca: Sep 14, 2026, 21:42 UTC

1 63791C 25091S   26257.90465278  .00058794  00000+0  21297-2 0  2578
2 63791  43.0002  64.2695 0001530 273.2488 186.2816 15.27545457    10

Traccia STARLINK-33935 in tempo reale con AllMySat

Download on the App Store